| time (UTC) | temp C | wind direction | speed KPH | gust KPH | rain 1hr cm | rain 24hr cm | rain mn cm | humidity % | barometer mb |
| 20260506221504 | 5 | 5 | 0.0 | 0.0 | 0.05 | 2.29 | 2.01 | 97 | 1005.2 |
| 20260506220002 | 5 | 5 | 0.0 | 0.0 | 0.08 | 2.31 | 2.01 | 97 | 1005.2 |
| 20260506214502 | 5 | 5 | 0.0 | 0.0 | 0.08 | 2.29 | 1.98 | 97 | 1005.1 |
| 20260506213102 | 5 | 5 | 0.0 | 0.0 | 0.13 | 2.29 | 1.98 | 97 | 1005.2 |
| 20260506211558 | 5 | 5 | 0.0 | 0.0 | 0.13 | 2.26 | 1.96 | 97 | 1005.2 |
| 20260506210057 | 5 | 5 | 0.0 | 1.6 | 0.13 | 2.44 | 1.93 | 96 | 1005.1 |
| 20260506204557 | 5 | 5 | 0.0 | 0.0 | 0.13 | 2.41 | 1.91 | 96 | 1005.1 |
| 20260506203055 | 5 | 5 | 0.0 | 0.0 | 0.10 | 2.36 | 1.85 | 96 | 1004.8 |
| 20260506201552 | 5 | 5 | 0.0 | 0.0 | 0.10 | 2.34 | 1.83 | 96 | 1004.5 |
| 20260506200052 | 5 | 5 | 0.0 | 0.0 | 0.08 | 2.44 | 1.80 | 96 | 1004.4 |
| 20260506194550 | 5 | 5 | 0.0 | 0.0 | 0.08 | 2.41 | 1.78 | 96 | 1004.6 |
| 20260506193054 | 5 | 5 | 0.0 | 0.0 | 0.08 | 2.39 | 1.75 | 96 | 1004.6 |
| 20260506191546 | 5 | 5 | 0.0 | 1.6 | 0.08 | 2.36 | 1.73 | 96 | 1004.7 |
| 20260506190046 | 5 | 5 | 0.0 | 0.0 | 0.10 | 2.36 | 1.73 | 96 | 1004.8 |
| 20260506184542 | 5 | 5 | 0.0 | 0.0 | 0.13 | 2.34 | 1.70 | 96 | 1005.2 |
| 20260506183041 | 5 | 5 | 0.0 | 0.0 | 0.15 | 2.31 | 1.68 | 97 | 1005.2 |
| 20260506181546 | 5 | 360 | 0.0 | 0.0 | 0.20 | 2.29 | 1.65 | 97 | 1005.2 |
| 20260506180036 | 5 | 360 | 0.0 | 0.0 | 0.25 | 2.29 | 1.63 | 97 | 1005.6 |
| 20260506174537 | 5 | 360 | 0.0 | 0.0 | 0.28 | 2.24 | 1.57 | 97 | 1005.6 |
| 20260506173102 | 5 | 360 | 0.0 | 0.0 | 0.30 | 2.18 | 1.52 | 97 | 1005.7 |
| 20260506171541 | 5 | 360 | 0.0 | 16.1 | 0.28 | 2.11 | 1.42 | 97 | 1005.5 |
| 20260506170048 | 5 | 355 | 0.0 | 0.0 | 0.25 | 2.03 | 1.37 | 96 | 1005.5 |
| 20260506164529 | 5 | 344 | 0.0 | 9.7 | 0.25 | 1.96 | 1.30 | 96 | 1005.6 |
| 20260506163029 | 5 | 13 | 1.6 | 6.4 | 0.20 | 1.88 | 1.22 | 96 | 1005.8 |
| 20260506161526 | 5 | 19 | 0.0 | 9.7 | 0.18 | 1.80 | 1.14 | 96 | 1005.6 |
| 20260506160024 | 5 | 9 | 0.0 | 0.0 | 0.18 | 1.78 | 1.12 | 95 | 1005.4 |
| 20260506154521 | 5 | 9 | 0.0 | 1.6 | 0.13 | 1.70 | 1.04 | 95 | 1005.5 |
| 20260506153023 | 5 | 15 | 0.0 | 1.6 | 0.10 | 1.68 | 1.02 | 95 | 1005.8 |
| 20260506151519 | 5 | 21 | 0.0 | 0.0 | 0.10 | 1.63 | 0.97 | 95 | 1006.1 |
| 20260506150018 | 5 | 24 | 0.0 | 0.0 | 0.13 | 1.60 | 0.94 | 94 | 1005.9 |
| 20260506144515 | 5 | 19 | 0.0 | 0.0 | 0.15 | 1.57 | 0.91 | 94 | 1005.8 |
| 20260506143022 | 5 | 5 | 0.0 | 1.6 | 0.15 | 1.55 | 0.89 | 95 | 1005.9 |
| 20260506141512 | 5 | 360 | 0.0 | 0.0 | 0.18 | 1.52 | 0.86 | 95 | 1005.9 |
| 20260506140111 | 5 | 360 | 0.0 | 0.0 | 0.15 | 1.45 | 0.81 | 94 | 1006.3 |
| 20260506134505 | 5 | 360 | 0.0 | 0.0 | 0.15 | 1.42 | 0.76 | 95 | 1006.1 |
| 20260506133004 | 5 | 360 | 0.0 | 0.0 | 0.20 | 1.40 | 0.71 | 95 | 1006.4 |
| 20260506131507 | 5 | 360 | 0.0 | 0.0 | 0.23 | 1.35 | 0.69 | 95 | 1006.2 |
| 20260506130002 | 5 | 360 | 0.0 | 0.0 | 0.23 | 1.32 | 0.66 | 95 | 1006.4 |
| 20260506124559 | 5 | 360 | 0.0 | 0.0 | 0.20 | 1.27 | 0.61 | 94 | 1006.6 |
| 20260506123055 | 6 | 360 | 0.0 | 0.0 | 0.13 | 1.19 | 0.53 | 94 | 1007.1 |
| 20260506121553 | 6 | 360 | 0.0 | 0.0 | 0.10 | 1.14 | 0.48 | 94 | 1007.1 |
| 20260506120052 | 6 | 360 | 0.0 | 0.0 | 0.05 | 1.09 | 0.43 | 94 | 1006.6 |
| 20260506114551 | 6 | 360 | 0.0 | 0.0 | 0.05 | 1.07 | 0.41 | 94 | 1006.3 |
| 20260506113048 | 6 | 5 | 0.0 | 0.0 | 0.05 | 1.07 | 0.41 | 95 | 1006.2 |
| 20260506111545 | 6 | 9 | 0.0 | 0.0 | 0.03 | 1.04 | 0.38 | 96 | 1006.2 |
| 20260506110046 | 6 | 9 | 0.0 | 0.0 | 0.03 | 1.04 | 0.38 | 96 | 1006.0 |
| 20260506104606 | 7 | 9 | 0.0 | 0.0 | 0.03 | 1.02 | 0.36 | 96 | 1006.2 |
| 20260506103041 | 7 | 9 | 0.0 | 0.0 | 0.03 | 1.02 | 0.36 | 96 | 1006.4 |
| 20260506101541 | 7 | 9 | 0.0 | 0.0 | 0.03 | 1.02 | 0.36 | 96 | 1006.4 |
| 20260506100043 | 7 | 9 | 0.0 | 0.0 | 0.03 | 1.02 | 0.36 | 96 | 1006.8 |
| 20260506094537 | 7 | 9 | 0.0 | 0.0 | 0.03 | 0.99 | 0.33 | 96 | 1006.5 |
| 20260506093035 | 7 | 9 | 0.0 | 0.0 | 0.05 | 0.99 | 0.33 | 96 | 1006.5 |
| 20260506091532 | 7 | 9 | 0.0 | 0.0 | 0.08 | 0.99 | 0.33 | 96 | 1006.8 |
| 20260506090041 | 7 | 9 | 0.0 | 0.0 | 0.08 | 0.99 | 0.33 | 96 | 1007.2 |
| 20260506084533 | 7 | 9 | 0.0 | 0.0 | 0.05 | 0.97 | 0.30 | 96 | 1006.8 |
| 20260506083101 | 7 | 9 | 0.0 | 0.0 | 0.03 | 0.94 | 0.28 | 96 | 1007.2 |
| 20260506081601 | 7 | 9 | 0.0 | 0.0 | 0.00 | 0.91 | 0.25 | 96 | 1006.6 |
| 20260506073050 | 7 | 9 | 0.0 | 0.0 | 0.05 | 0.91 | 0.25 | 95 | 1006.2 |
| 20260506071547 | 8 | 360 | 0.0 | 0.0 | 0.08 | 0.91 | 0.25 | 95 | 1006.1 |
| 20260506061540 | 9 | 274 | 0.0 | 0.0 | 0.13 | 0.84 | 0.18 | 95 | 1006.6 |
| 20260506044611 | 10 | 274 | 0.0 | 0.0 | 0.10 | 0.61 | 0.61 | 93 | 1006.3 |
| 20260506043027 | 10 | 274 | 0.0 | 0.0 | 0.18 | 0.61 | 0.61 | 93 | 1006.3 |
| 20260506041525 | 10 | 274 | 0.0 | 0.0 | 0.15 | 0.58 | 0.58 | 92 | 1006.0 |
| 20260506040038 | 10 | 274 | 0.0 | 0.0 | 0.13 | 0.56 | 0.56 | 89 | 1005.9 |
| 20260506034520 | 11 | 274 | 0.0 | 0.0 | 0.10 | 0.51 | 0.51 | 88 | 1005.8 |
| 20260506033020 | 11 | 274 | 0.0 | 0.0 | 0.03 | 0.43 | 0.43 | 86 | 1005.5 |
| 20260506031516 | 11 | 274 | 0.0 | 0.0 | 0.05 | 0.43 | 0.43 | 85 | 1005.2 |
| 20260506030019 | 11 | 274 | 0.0 | 8.0 | 0.05 | 0.43 | 0.43 | 85 | 1005.1 |
| 20260506024524 | 12 | 278 | 0.0 | 19.3 | 0.03 | 0.41 | 0.41 | 87 | 1005.2 |
| 20260506023012 | 13 | 303 | 0.0 | 0.0 | 0.03 | 0.41 | 0.41 | 91 | 1004.9 |
| 20260506021514 | 13 | 224 | 0.0 | 0.0 | 0.00 | 0.38 | 0.38 | 89 | 1004.6 |
| 20260506020004 | 13 | 224 | 0.0 | 0.0 | 0.00 | 0.38 | 0.38 | 89 | 1003.8 |
| 20260506014511 | 13 | 224 | 0.0 | 0.0 | 0.00 | 0.38 | 0.38 | 90 | 1003.8 |
| 20260506013004 | 13 | 224 | 0.0 | 1.6 | 0.00 | 0.38 | 0.38 | 90 | 1003.7 |
| 20260506011508 | 13 | 224 | 0.0 | 0.0 | 0.00 | 0.38 | 0.38 | 90 | 1003.5 |
| 20260506010000 | 13 | 224 | 0.0 | 0.0 | 0.00 | 0.38 | 0.38 | 91 | 1003.2 |
| 20260506004604 | 13 | 224 | 0.0 | 11.3 | 0.00 | 0.38 | 0.38 | 92 | 1003.2 |
| 20260506003117 | 13 | 224 | 0.0 | 1.6 | 0.00 | 0.38 | 0.38 | 92 | 1003.1 |
| 20260506001623 | 13 | 224 | 0.0 | 3.2 | 0.00 | 0.38 | 0.38 | 92 | 1003.1 |
| 20260506000031 | 13 | 224 | 0.0 | 0.0 | 0.00 | 0.38 | 0.38 | 92 | 1003.1 |
| 20260505234535 | 13 | 224 | 0.0 | 0.0 | 0.00 | 0.38 | 0.38 | 92 | 1002.8 |
| 20260505233057 | 14 | 224 | 0.0 | 0.0 | 0.00 | 0.38 | 0.38 | 93 | 1002.6 |
| 20260505231557 | 14 | 224 | 0.0 | 4.8 | 0.00 | 0.38 | 0.38 | 93 | 1002.4 |
| 20260505230053 | 14 | 224 | 0.0 | 0.0 | 0.00 | 0.38 | 0.38 | 93 | 1002.5 |
| 20260505224553 | 15 | 224 | 0.0 | 1.6 | 0.00 | 0.38 | 0.38 | 92 | 1002.6 |
| 20260505223105 | 15 | 224 | 0.0 | 0.0 | 0.00 | 0.38 | 0.38 | 91 | 1002.4 |